SCP
0 0 0 0 0 0 0 0 0 0 0 0 0 0 0 0 0 0 0 0 0 0 0 0 0 0 0 0 0 0 0 0 0 0 0 0 0 0 0 0 0 0 0
0 0 0 0 -0 0 0 0 0 0 0 0 0 0 0 0 0 0 0 0 0 0 0 0 0 0 0 0 0 0 0 0 0 0 0 0 0 0 0 0 0 -0 0
0 0 0 -0 0 -0 0 0 0 0 0 0 0 0 0 0 0 0 0 0 0 0 0 0 0 0 0 0 0 0 0 0 0 0 0 0 0 0 0 0 0 0 0
0 0 0 -0 0 0 0 0 0 0 0 0 0 0 0 0 0 0 0 0 0 0 0 0 0 0 0 0 0 0 0 0 0 0 0 0 0 0 0 0 0 0 0
0 0 0 0 0 0 0 0 0 0 0 0 0 0 0 0 0 0 0 0 0 0 0 0 0 0 0 0 0 0 0 0 0 0 0 0 0 0 0 0 0 0 -0
0 0 0 0 0 0 0 0 0 0 0 0 0 0 0 0 0 0 0 0 0 0 0 0 0 0 0 0 0 0 0 0 0 0 0 0 0 0 0 0 0 0 -0
0 0 0 0 0 0 0 0 0 0 0 0 0 0 0 0 0 0 0 0 0 0 0 0 0 0 0 0 0 0 0 0 0 0 0 0 0 0 0 0 0 0 0
0 0 0 0 0 0 0 0 0 0 0 0 0 0 0 0 0 0 0 0 0 0 0 0 0 0 0 0 0 0 0 0 0 0 0 0 0 0 0 0 0 0 0
0 0 0 0 0 0 0 0 0 0 0 0 0 0 0 0 0 0 0 0 0 0 0 0 0 0 0 0 0 0 0 0 0 -0 -0 -0 0 0 0 0 0 0 0
0 0 0 0 0 0 0 0 0 0 0 0 0 0 0 0 0 0 0 0 0 0 0 0 0 0 0 0 0 0 0 -0 -0 0 0 0 0 0 0 0 0 0 0
0 0 0 0 0 0 0 0 0 0 0 0 0 0 0 0 0 0 0 0 0 0 0 0 0 0 0 0 0 0 0 0 0 0 0 0 0 0 0 0 0 0 0
0 0 0 0 0 0 0 0 0 0 0 0 0 0 0 0 0 0 0 0 0 0 0 0 0 0 0 0 0 0 0 0 0 0 0 0 0 0 0 0 0 0 0
0 0 0 0 0 0 0 0 0 0 0 0 0 0 0 0 0 0 0 0 0 0 0 0 0 0 0 0 0 0 0 0 0 0 0 0 0 0 0 0 0 0 0
0 0 0 0 0 0 0 0 0 0 0 0 0 0 0 0 0 0 0 0 0 0 0 0 0 0 0 0 0 0 0 0 0 0 0 0 0 0 0 0 0 0 0
0 0 0 0 0 0 0 0 0 0 0 0 0 0 0 0 0 0 0 0 0 0 0 0 0 0 0 0 0 0 0 0 0 0 0 0 0 0 0 0 0 0 0
0 0 0 0 0 0 0 0 0 0 0 0 0 0 0 0 0 0 0 0 0 0 0 0 0 0 0 0 0 0 0 0 0 0 0 0 0 0 0 0 0 0 0
0 0 0 0 0 0 0 0 0 0 0 0 0 0 0 0 0 0 0 0 0 0 0 0 0 0 0 0 0 0 0 0 0 0 0 0 0 0 0 0 0 0 0
0 0 0 0 0 0 0 0 0 0 0 0 0 0 0 0 0 0 0 0 0 0 0 0 0 0 0 0 0 0 0 0 0 0 0 0 0 0 0 0 0 0 0
0 0 0 0 0 0 0 0 0 0 0 0 0 0 0 0 0 0 0 0 0 0 0 0 0 0 0 0 0 0 0 0 0 0 0 0 0 0 -0 0 0 0 0
0 0 0 0 0 0 0 0 0 0 0 0 0 0 0 0 0 0 0 0 0 0 0 0 0 0 0 0 0 0 0 0 0 0 0 0 -0 -0 -0 0 0 0 0
0 -0 0 0 0 0 0 0 0 0 0 0 0 0 0 0 0 0 0 0 0 0 0 0 0 0 0 0 0 0 0 0 0 0 0 0 -0 -0 -0 0 0 0 0
0 0 0 0 0 0 0 0 0 0 0 0 0 0 0 0 0 0 0 0 0 0 0 0 0 0 0 0 0 0 0 0 0 0 -0 -0 -0 0 0 0 0 0 0
0 0 0 0 0 0 0 0 0 0 0 0 0 0 0 0 0 0 0 0 0 0 0 0 0 0 0 0 0 0 -0 -0 0 -0 -0 0 0 -0 0 -0 -0 -0 0
0 0 0 0 0 0 0 0 0 0 0 0 0 0 0 0 0 0 0 0 0 0 0 0 0 0 0 0 0 -0 -0 -0 0 -0 -0 0 0 0 0 0 0 0 0
0 0 0 0 0 0 0 0 0 0 0 0 0 0 0 0 0 0 0 0 0 0 0 0 0 0 0 0 0 0 -0 -0 0 0 -0 -0 -0 0 -0 0 0 0 0
0 0 0 0 0 0 0 0 0 0 0 0 0 0 0 0 0 0 0 0 0 0 0 0 0 0 0 0 -0 -0 -0 -0 -0 0 0 0 -0 0 -0 -0 0 0 0
Wind_Speed_500mb
18 12 14 17 6 11 18 8 7 6 8 15 20 23 28 29 37 43 46 48 55 61 66 67 64 61 60 55 52 51 54 55 54 53 57 52 43 36 36 42 42 42 46
25 23 22 18 15 8 5 8 11 17 17 21 28 34 41 45 47 50 53 60 63 63 69 77 78 75 74 71 66 64 64 63 63 60 61 56 43 54 53 55 58 56 55
19 15 12 8 1 1 7 13 17 22 26 32 36 39 42 44 54 55 51 54 65 67 70 67 77 86 86 85 81 79 76 74 72 67 56 26 36 47 46 51 62 63 64
10 6 1 8 12 16 18 20 24 27 30 29 27 36 47 59 62 68 73 72 61 57 60 62 62 72 91 99 93 87 83 78 76 73 64 61 59 41 38 53 57 62 62
7 10 16 19 23 23 19 16 14 14 18 25 39 49 58 65 69 70 65 62 64 67 68 69 70 68 69 90 100 87 78 71 66 61 48 43 37 32 26 39 51 66 72
9 9 10 8 7 1 3 8 15 25 35 46 56 61 60 62 67 70 73 77 79 78 76 72 69 72 71 75 73 76 62 51 50 37 29 21 13 16 19 35 52 61 78
13 10 5 3 3 8 16 26 39 48 54 59 59 60 59 61 66 73 78 78 76 75 74 66 58 56 45 49 54 54 57 53 43 33 28 35 36 42 39 45 52 59 62
13 12 9 9 11 20 33 45 52 59 60 56 54 51 55 65 73 77 80 73 67 69 63 57 37 36 39 39 25 21 20 27 33 46 51 53 51 38 31 38 45 57 62
18 17 17 16 23 39 49 51 54 52 50 49 54 63 71 80 86 86 80 61 58 60 45 32 23 16 17 25 39 34 39 54 42 38 33 36 38 32 36 44 45 44 52
22 25 29 32 32 37 45 48 47 45 48 58 62 70 83 89 93 89 59 47 53 42 22 14 16 29 38 43 50 52 34 33 30 28 32 36 40 45 48 52 55 55 58
28 35 41 41 41 46 49 48 50 55 60 63 69 78 88 93 90 61 38 32 28 16 11 17 28 38 33 25 21 23 25 31 38 41 47 53 53 53 53 53 53 53 51
45 47 46 49 45 56 54 51 56 62 64 63 72 88 87 81 58 42 17 13 10 11 16 29 18 16 25 34 37 39 41 44 46 50 53 55 55 57 56 53 54 54 52
54 52 55 41 51 56 54 50 55 62 58 68 78 78 75 62 41 18 15 16 16 17 22 28 31 34 32 41 46 48 50 52 54 56 57 55 54 55 54 55 58 61 62
50 51 43 42 53 56 51 55 62 56 66 72 65 63 54 49 26 14 17 19 13 27 36 36 28 35 42 45 54 58 58 59 55 53 55 58 59 65 69 73 77 78 79
42 43 38 46 47 50 58 67 54 64 71 59 51 48 39 40 31 27 25 28 37 48 46 41 34 38 46 56 60 57 53 53 58 62 67 71 71 73 73 73 74 70 69
42 37 39 41 45 53 60 60 69 76 59 47 44 31 34 35 30 23 26 32 43 49 48 45 43 48 55 57 51 50 52 57 63 70 75 78 72 67 60 54 50 50 54
32 47 46 51 56 59 59 68 67 53 45 45 23 14 17 29 38 41 43 42 45 42 40 47 54 54 51 48 48 51 58 68 74 75 70 66 61 56 55 55 53 52 53
36 41 45 58 58 59 71 63 47 49 52 34 33 36 34 31 36 40 44 46 47 49 49 49 51 51 51 52 59 65 69 68 65 63 61 57 52 50 49 50 53 56 57
48 53 54 51 61 70 58 45 49 52 33 27 41 40 39 40 46 48 47 46 46 48 50 48 49 54 60 62 63 59 60 62 60 55 46 47 46 46 48 50 57 59 55
44 58 44 58 66 54 34 43 41 32 30 38 41 39 43 45 47 47 47 47 49 47 48 52 55 58 57 57 56 52 57 58 54 48 51 43 45 49 54 53 56 61 59
52 40 53 60 56 41 40 40 31 32 35 42 38 44 45 43 44 45 45 44 46 51 54 56 55 54 54 56 50 50 46 43 50 53 50 46 45 54 52 48 51 56 55
48 45 56 59 49 44 44 38 33 28 41 36 41 42 42 44 46 46 45 46 49 53 56 59 63 61 58 50 50 44 38 40 46 46 43 47 56 61 51 44 36 36 39
39 51 54 58 51 42 35 34 31 35 31 37 39 41 44 47 48 47 48 50 51 55 58 61 66 69 63 59 49 41 42 47 36 35 38 46 52 46 35 31 31 29 29
49 62 56 49 45 32 29 37 43 35 33 35 39 42 46 50 50 49 49 49 52 54 56 60 62 64 64 61 52 56 54 45 35 42 42 39 41 32 27 22 24 23 21
60 56 51 44 41 36 37 40 41 33 34 37 40 42 45 50 53 49 46 48 47 49 55 54 56 56 58 55 49 50 50 37 37 35 34 34 36 36 32 26 24 26 24
62 54 45 42 45 45 40 41 40 38 39 40 42 44 47 50 49 46 48 43 42 47 46 47 48 43 45 44 45 47 38 31 31 26 27 32 36 38 41 42 32 26 31
Wind_Direction_500mb
114 79 55 52 75 187 188 206 271 316 315 310 313 313 317 317 323 324 318 314 313 308 298 291 287 281 276 277 278 278 275 276 279 280 282 279 276 277 284 294 303 326 319
102 87 78 75 89 116 192 270 282 288 299 296 293 297 305 309 313 315 310 307 308 308 298 291 289 282 277 274 270 269 270 271 270 266 271 275 270 272 276 281 287 306 321
95 96 95 70 69 269 233 248 260 268 276 279 285 294 301 304 309 310 307 302 300 299 297 292 279 275 273 269 269 267 266 267 265 256 250 246 256 271 270 275 283 292 307
141 128 320 256 249 243 245 257 266 273 283 297 309 315 316 315 316 314 314 311 308 301 299 300 294 278 269 267 266 263 260 254 252 250 243 244 254 257 273 277 282 288 302
161 219 233 237 245 248 254 274 294 306 310 314 314 313 311 312 313 314 313 309 307 306 303 298 295 290 281 270 264 253 248 243 239 241 237 236 244 256 265 278 278 287 295
222 239 220 208 218 213 349 340 327 324 317 312 312 317 322 321 320 319 316 313 311 308 305 303 298 287 277 270 259 238 230 218 218 212 221 232 253 269 283 295 298 295 289
292 255 264 239 23 357 346 337 330 326 324 323 321 318 317 318 319 319 317 313 311 310 309 309 302 285 263 234 218 206 203 209 212 237 263 266 269 271 278 286 293 291 291
25 45 59 17 351 341 337 332 328 323 320 319 318 318 320 322 322 323 322 313 307 307 309 309 293 250 213 198 195 207 223 243 255 277 291 278 286 299 305 285 286 293 290
34 16 351 335 328 327 318 316 318 319 320 324 324 323 324 324 323 317 321 301 301 301 293 269 242 234 258 263 253 284 296 309 314 319 309 292 284 277 278 278 278 283 290
358 347 331 315 301 312 320 321 324 326 328 328 327 325 325 325 326 324 314 296 292 285 251 243 287 301 304 299 299 304 314 308 314 306 298 294 290 287 284 283 281 279 280
344 319 313 302 301 316 319 327 333 334 332 331 328 325 325 328 327 321 317 283 264 224 253 295 296 300 315 316 315 304 295 290 290 289 289 290 292 291 290 289 285 282 278
331 324 311 304 306 327 327 328 332 331 329 326 324 324 326 327 328 327 307 204 233 276 298 292 308 300 325 322 313 306 301 300 298 296 294 292 293 290 291 290 287 283 280
331 330 328 318 320 327 326 321 325 323 321 323 325 327 329 332 328 301 242 211 234 265 287 306 324 321 308 305 310 308 305 302 302 300 298 297 295 292 290 287 284 282 281
332 332 325 320 327 331 329 328 322 320 323 326 326 331 334 340 321 264 232 235 262 283 289 299 305 298 299 301 305 305 304 304 303 302 300 295 292 292 291 289 286 284 282
315 325 320 323 329 334 335 327 323 325 328 325 327 332 338 336 319 285 270 268 274 286 300 309 297 296 297 299 302 303 303 303 301 299 295 293 294 294 293 290 287 286 284
328 331 334 341 337 335 319 321 326 326 327 318 321 332 336 336 332 345 355 334 329 322 316 302 298 296 299 304 307 307 303 301 299 299 299 300 300 299 296 292 286 279 277
330 328 333 332 329 320 319 322 323 329 321 317 329 343 340 347 342 332 324 319 316 311 305 302 303 307 309 308 305 303 302 301 301 300 303 305 305 305 300 297 291 282 274
344 345 337 323 319 322 321 321 321 329 327 323 340 340 332 329 320 319 318 313 309 309 310 310 310 309 309 309 307 305 303 301 301 304 306 306 307 306 308 301 295 292 290
347 326 318 319 320 322 319 314 324 326 330 340 341 334 325 323 322 323 322 320 319 318 317 318 317 313 312 312 312 311 308 306 307 309 310 311 309 313 312 300 294 293 290
324 314 319 321 324 322 316 316 319 321 325 328 327 322 320 322 323 323 322 321 320 321 320 317 314 316 317 318 317 315 312 313 316 315 315 319 314 315 312 303 297 295 296
313 313 323 328 329 318 314 310 308 317 311 313 317 319 324 328 326 323 321 325 326 323 320 319 324 325 322 324 321 321 319 314 315 315 318 319 317 314 313 300 294 287 287
317 315 325 330 330 323 306 291 289 312 300 305 316 323 329 330 329 327 328 330 329 326 326 326 326 328 329 331 330 328 321 317 316 316 320 314 315 318 317 316 308 299 291
310 315 323 328 326 325 320 327 328 302 295 308 316 324 330 333 332 329 328 330 331 330 329 330 329 330 332 334 336 332 331 328 326 322 314 310 318 325 326 326 325 319 311
319 318 312 318 322 324 313 308 306 299 298 309 316 322 328 332 331 327 326 326 331 331 332 332 330 330 331 336 343 336 333 336 332 321 327 328 334 340 334 338 352 347 328
314 313 308 313 315 310 307 311 308 290 299 306 312 317 324 331 330 327 325 327 330 330 331 331 329 329 329 337 333 329 332 332 322 326 333 348 359 1 6 5 4 8 6
314 314 309 305 309 302 302 304 300 288 294 299 303 311 321 330 330 327 323 325 327 330 332 331 330 329 328 333 330 331 337 326 335 339 353 4 10 12 16 14 10 11 15
Wind_Speed_850mb
18 12 14 17 6 11 18 8 7 6 8 15 20 23 28 29 37 43 46 48 55 61 66 67 64 61 60 55 52 51 54 55 54 53 57 52 43 36 36 42 42 42 46
25 23 22 18 15 8 5 8 11 17 17 21 28 34 41 45 47 50 53 60 63 63 69 77 78 75 74 71 66 64 64 63 63 60 61 56 43 54 53 55 58 56 55
19 15 12 8 1 1 7 13 17 22 26 32 36 39 42 44 54 55 51 54 65 67 70 67 77 86 86 85 81 79 76 74 72 67 56 26 36 47 46 51 62 63 64
10 6 1 8 12 16 18 20 24 27 30 29 27 36 47 59 62 68 73 72 61 57 60 62 62 72 91 99 93 87 83 78 76 73 64 61 59 41 38 53 57 62 62
7 10 16 19 23 23 19 16 14 14 18 25 39 49 58 65 69 70 65 62 64 67 68 69 70 68 69 90 100 87 78 71 66 61 48 43 37 32 26 39 51 66 72
9 9 10 8 7 1 3 8 15 25 35 46 56 61 60 62 67 70 73 77 79 78 76 72 69 72 71 75 73 76 62 51 50 37 29 21 13 16 19 35 52 61 78
13 10 5 3 3 8 16 26 39 48 54 59 59 60 59 61 66 73 78 78 76 75 74 66 58 56 45 49 54 54 57 53 43 33 28 35 36 42 39 45 52 59 62
13 12 9 9 11 20 33 45 52 59 60 56 54 51 55 65 73 77 80 73 67 69 63 57 37 36 39 39 25 21 20 27 33 46 51 53 51 38 31 38 45 57 62
18 17 17 16 23 39 49 51 54 52 50 49 54 63 71 80 86 86 80 61 58 60 45 32 23 16 17 25 39 34 39 54 42 38 33 36 38 32 36 44 45 44 52
22 25 29 32 32 37 45 48 47 45 48 58 62 70 83 89 93 89 59 47 53 42 22 14 16 29 38 43 50 52 34 33 30 28 32 36 40 45 48 52 55 55 58
28 35 41 41 41 46 49 48 50 55 60 63 69 78 88 93 90 61 38 32 28 16 11 17 28 38 33 25 21 23 25 31 38 41 47 53 53 53 53 53 53 53 51
45 47 46 49 45 56 54 51 56 62 64 63 72 88 87 81 58 42 17 13 10 11 16 29 18 16 25 34 37 39 41 44 46 50 53 55 55 57 56 53 54 54 52
54 52 55 41 51 56 54 50 55 62 58 68 78 78 75 62 41 18 15 16 16 17 22 28 31 34 32 41 46 48 50 52 54 56 57 55 54 55 54 55 58 61 62
50 51 43 42 53 56 51 55 62 56 66 72 65 63 54 49 26 14 17 19 13 27 36 36 28 35 42 45 54 58 58 59 55 53 55 58 59 65 69 73 77 78 79
42 43 38 46 47 50 58 67 54 64 71 59 51 48 39 40 31 27 25 28 37 48 46 41 34 38 46 56 60 57 53 53 58 62 67 71 71 73 73 73 74 70 69
42 37 39 41 45 53 60 60 69 76 59 47 44 31 34 35 30 23 26 32 43 49 48 45 43 48 55 57 51 50 52 57 63 70 75 78 72 67 60 54 50 50 54
32 47 46 51 56 59 59 68 67 53 45 45 23 14 17 29 38 41 43 42 45 42 40 47 54 54 51 48 48 51 58 68 74 75 70 66 61 56 55 55 53 52 53
36 41 45 58 58 59 71 63 47 49 52 34 33 36 34 31 36 40 44 46 47 49 49 49 51 51 51 52 59 65 69 68 65 63 61 57 52 50 49 50 53 56 57
48 53 54 51 61 70 58 45 49 52 33 27 41 40 39 40 46 48 47 46 46 48 50 48 49 54 60 62 63 59 60 62 60 55 46 47 46 46 48 50 57 59 55
44 58 44 58 66 54 34 43 41 32 30 38 41 39 43 45 47 47 47 47 49 47 48 52 55 58 57 57 56 52 57 58 54 48 51 43 45 49 54 53 56 61 59
52 40 53 60 56 41 40 40 31 32 35 42 38 44 45 43 44 45 45 44 46 51 54 56 55 54 54 56 50 50 46 43 50 53 50 46 45 54 52 48 51 56 55
48 45 56 59 49 44 44 38 33 28 41 36 41 42 42 44 46 46 45 46 49 53 56 59 63 61 58 50 50 44 38 40 46 46 43 47 56 61 51 44 36 36 39
39 51 54 58 51 42 35 34 31 35 31 37 39 41 44 47 48 47 48 50 51 55 58 61 66 69 63 59 49 41 42 47 36 35 38 46 52 46 35 31 31 29 29
49 62 56 49 45 32 29 37 43 35 33 35 39 42 46 50 50 49 49 49 52 54 56 60 62 64 64 61 52 56 54 45 35 42 42 39 41 32 27 22 24 23 21
60 56 51 44 41 36 37 40 41 33 34 37 40 42 45 50 53 49 46 48 47 49 55 54 56 56 58 55 49 50 50 37 37 35 34 34 36 36 32 26 24 26 24
62 54 45 42 45 45 40 41 40 38 39 40 42 44 47 50 49 46 48 43 42 47 46 47 48 43 45 44 45 47 38 31 31 26 27 32 36 38 41 42 32 26 31
Wind_Direction_850mb
114 79 55 52 75 187 188 206 271 316 315 310 313 313 317 317 323 324 318 314 313 308 298 291 287 281 276 277 278 278 275 276 279 280 282 279 276 277 284 294 303 326 319
102 87 78 75 89 116 192 270 282 288 299 296 293 297 305 309 313 315 310 307 308 308 298 291 289 282 277 274 270 269 270 271 270 266 271 275 270 272 276 281 287 306 321
95 96 95 70 69 269 233 248 260 268 276 279 285 294 301 304 309 310 307 302 300 299 297 292 279 275 273 269 269 267 266 267 265 256 250 246 256 271 270 275 283 292 307
141 128 320 256 249 243 245 257 266 273 283 297 309 315 316 315 316 314 314 311 308 301 299 300 294 278 269 267 266 263 260 254 252 250 243 244 254 257 273 277 282 288 302
161 219 233 237 245 248 254 274 294 306 310 314 314 313 311 312 313 314 313 309 307 306 303 298 295 290 281 270 264 253 248 243 239 241 237 236 244 256 265 278 278 287 295
222 239 220 208 218 213 349 340 327 324 317 312 312 317 322 321 320 319 316 313 311 308 305 303 298 287 277 270 259 238 230 218 218 212 221 232 253 269 283 295 298 295 289
292 255 264 239 23 357 346 337 330 326 324 323 321 318 317 318 319 319 317 313 311 310 309 309 302 285 263 234 218 206 203 209 212 237 263 266 269 271 278 286 293 291 291
25 45 59 17 351 341 337 332 328 323 320 319 318 318 320 322 322 323 322 313 307 307 309 309 293 250 213 198 195 207 223 243 255 277 291 278 286 299 305 285 286 293 290
34 16 351 335 328 327 318 316 318 319 320 324 324 323 324 324 323 317 321 301 301 301 293 269 242 234 258 263 253 284 296 309 314 319 309 292 284 277 278 278 278 283 290
358 347 331 315 301 312 320 321 324 326 328 328 327 325 325 325 326 324 314 296 292 285 251 243 287 301 304 299 299 304 314 308 314 306 298 294 290 287 284 283 281 279 280
344 319 313 302 301 316 319 327 333 334 332 331 328 325 325 328 327 321 317 283 264 224 253 295 296 300 315 316 315 304 295 290 290 289 289 290 292 291 290 289 285 282 278
331 324 311 304 306 327 327 328 332 331 329 326 324 324 326 327 328 327 307 204 233 276 298 292 308 300 325 322 313 306 301 300 298 296 294 292 293 290 291 290 287 283 280
331 330 328 318 320 327 326 321 325 323 321 323 325 327 329 332 328 301 242 211 234 265 287 306 324 321 308 305 310 308 305 302 302 300 298 297 295 292 290 287 284 282 281
332 332 325 320 327 331 329 328 322 320 323 326 326 331 334 340 321 264 232 235 262 283 289 299 305 298 299 301 305 305 304 304 303 302 300 295 292 292 291 289 286 284 282
315 325 320 323 329 334 335 327 323 325 328 325 327 332 338 336 319 285 270 268 274 286 300 309 297 296 297 299 302 303 303 303 301 299 295 293 294 294 293 290 287 286 284
328 331 334 341 337 335 319 321 326 326 327 318 321 332 336 336 332 345 355 334 329 322 316 302 298 296 299 304 307 307 303 301 299 299 299 300 300 299 296 292 286 279 277
330 328 333 332 329 320 319 322 323 329 321 317 329 343 340 347 342 332 324 319 316 311 305 302 303 307 309 308 305 303 302 301 301 300 303 305 305 305 300 297 291 282 274
344 345 337 323 319 322 321 321 321 329 327 323 340 340 332 329 320 319 318 313 309 309 310 310 310 309 309 309 307 305 303 301 301 304 306 306 307 306 308 301 295 292 290
347 326 318 319 320 322 319 314 324 326 330 340 341 334 325 323 322 323 322 320 319 318 317 318 317 313 312 312 312 311 308 306 307 309 310 311 309 313 312 300 294 293 290
324 314 319 321 324 322 316 316 319 321 325 328 327 322 320 322 323 323 322 321 320 321 320 317 314 316 317 318 317 315 312 313 316 315 315 319 314 315 312 303 297 295 296
313 313 323 328 329 318 314 310 308 317 311 313 317 319 324 328 326 323 321 325 326 323 320 319 324 325 322 324 321 321 319 314 315 315 318 319 317 314 313 300 294 287 287
317 315 325 330 330 323 306 291 289 312 300 305 316 323 329 330 329 327 328 330 329 326 326 326 326 328 329 331 330 328 321 317 316 316 320 314 315 318 317 316 308 299 291
310 315 323 328 326 325 320 327 328 302 295 308 316 324 330 333 332 329 328 330 331 330 329 330 329 330 332 334 336 332 331 328 326 322 314 310 318 325 326 326 325 319 311
319 318 312 318 322 324 313 308 306 299 298 309 316 322 328 332 331 327 326 326 331 331 332 332 330 330 331 336 343 336 333 336 332 321 327 328 334 340 334 338 352 347 328
314 313 308 313 315 310 307 311 308 290 299 306 312 317 324 331 330 327 325 327 330 330 331 331 329 329 329 337 333 329 332 332 322 326 333 348 359 1 6 5 4 8 6
314 314 309 305 309 302 302 304 300 288 294 299 303 311 321 330 330 327 323 325 327 330 332 331 330 329 328 333 330 331 337 326 335 339 353 4 10 12 16 14 10 11 15